Location: Palo Alto
(37.4420°N, 122.1420°W)
Time: 08:46:05
(UTC-07:00)

ISS - Visible Passes

Search period start: 06 May 2021 00:00
Search period end: 16 May 2021 00:00
Orbit: 418 x 421 km, 51.6° (Epoch: 05 May)

Date Brightness Start Highest point End Pass type
(mag) Time Alt. Az. Time Alt. Az. Time Alt. Az.
06 May -0.6 03:05:57 13° N 03:05:57 13° N 03:06:55 10° N visible
07 May -0.4 05:33:15 10° N 05:33:37 10° NNE 05:33:59 10° NNE visible
09 May -0.8 05:33:45 10° NNW 05:36:04 17° NNE 05:38:22 10° ENE visible
10 May -0.6 04:46:46 10° N 04:48:24 13° NNE 04:50:02 10° NE visible
11 May -0.2 04:00:16 10° N 04:00:40 10° NNE 04:01:05 10° NNE visible
12 May -1.2 04:47:54 10° NNW 04:50:43 24° NNE 04:53:32 10° E visible
13 May -0.7 04:00:46 10° NNW 04:03:06 17° NNE 04:05:25 10° ENE visible
13 May -1.7 20:44:48 10° SE 20:45:32 11° SE 20:46:16 10° ESE visible
13 May -2.1 22:18:33 10° WSW 22:20:12 26° WSW 22:20:12 26° WSW visible
14 May -0.4 03:13:47 10° N 03:15:25 13° NNE 03:17:03 10° NE visible
14 May -3.2 04:49:25 10° NW 04:52:47 63° NE 04:56:08 10° ESE visible
14 May -3.9 21:31:08 10° SW 21:34:27 64° SE 21:37:48 10° NE visible
14 May -0.8 23:09:09 10° WNW 23:11:33 18° NNW 23:13:57 10° NNE visible
15 May -0.1 02:27:15 10° N 02:27:41 10° NNE 02:28:07 10° NNE visible
15 May -2.1 04:02:06 10° NW 04:05:16 36° NE 04:08:26 10° ESE visible
15 May -3.1 20:44:01 10° SSW 20:47:05 34° SE 20:50:10 10° ENE visible
15 May -1.4 22:21:04 10° W 22:23:56 25° NNW 22:26:48 10° NNE visible
